When you browse on this site, cookies collect data to enhance your experience and personalize the content and advertising you see.
Visit our Privacy Policy to learn more. By continuing to use the site, you agree to this use of cookies and data.

Meteo pe oră la Poplyahny

Astăzi, 4 Iulie, Sâmbătă

Timp Temperatura Precipitaţii Vânt Presiune Umiditate
00:00 +16°C° 0 mm 1 m/s 751 mmHg 86%
01:00 +16°C° 0 mm 1 m/s 751 mmHg 89%
02:00 +14°C° 0 mm 0 m/s 751 mmHg 93%
03:00 +15°C° 0 mm 1 m/s 751 mmHg 91%
04:00 +16°C° 0 mm 1 m/s 751 mmHg 90%
05:00 +16°C° 0 mm 1 m/s 751 mmHg 89%
06:00 +19°C° 0 mm 1 m/s 751 mmHg 80%
07:00 +21°C° 0 mm 1 m/s 751 mmHg 71%
08:00 +23°C° 0 mm 1 m/s 751 mmHg 61%
09:00 +24°C° 0 mm 2 m/s 751 mmHg 57%
10:00 +25°C° 0 mm 2 m/s 751 mmHg 52%
11:00 +26°C° 0 mm 2 m/s 751 mmHg 47%
12:00 +26°C° 0 mm 3 m/s 751 mmHg 47%
13:00 +26°C° 0 mm 3 m/s 751 mmHg 46%
14:00 +27°C° 0 mm 3 m/s 751 mmHg 46%
15:00 +26°C° 0 mm 3 m/s 751 mmHg 48%
16:00 +26°C° 0 mm 3 m/s 751 mmHg 50%
17:00 +25°C° 0 mm 3 m/s 751 mmHg 52%
18:00 +24°C° 0 mm 2 m/s 751 mmHg 60%
19:00 +21°C° 0 mm 2 m/s 751 mmHg 67%
20:00 +20°C° 0 mm 1 m/s 751 mmHg 75%
21:00 +19°C° 0 mm 1 m/s 751 mmHg 77%
22:00 +18°C° 0 mm 1 m/s 751 mmHg 79%
23:00 +16°C° 0 mm 1 m/s 751 mmHg 81%

Mâine, 5 Iulie, Duminică

Timp Temperatura Precipitaţii Vânt Presiune Umiditate
00:00 +16°C° 0 mm 1 m/s 751 mmHg 82%
01:00 +15°C° 0 mm 1 m/s 751 mmHg 84%
02:00 +15°C° 0 mm 2 m/s 751 mmHg 86%
03:00 +16°C° 0 mm 2 m/s 751 mmHg 84%
04:00 +16°C° 0 mm 2 m/s 751 mmHg 82%
05:00 +17°C° 0 mm 2 m/s 750 mmHg 80%
06:00 +18°C° 0 mm 3 m/s 750 mmHg 75%
07:00 +20°C° 0 mm 4 m/s 750 mmHg 69%
08:00 +22°C° 0 mm 4 m/s 750 mmHg 63%
09:00 +23°C° 0 mm 4 m/s 750 mmHg 60%
10:00 +23°C° 0 mm 4 m/s 750 mmHg 57%
11:00 +25°C° 0 mm 4 m/s 749 mmHg 55%
12:00 +25°C° 0.1 mm 4 m/s 749 mmHg 59%
13:00 +25°C° 0.1 mm 4 m/s 749 mmHg 62%
14:00 +23°C° 0.1 mm 4 m/s 749 mmHg 66%
15:00 +24°C° 0.4 mm 3 m/s 748 mmHg 72%
16:00 +22°C° 0.4 mm 3 m/s 748 mmHg 79%
17:00 +22°C° 0.4 mm 3 m/s 748 mmHg 85%
18:00 +21°C° 0.5 mm 3 m/s 748 mmHg 88%
19:00 +20°C° 0.5 mm 2 m/s 748 mmHg 91%
20:00 +20°C° 0.5 mm 2 m/s 747 mmHg 94%
21:00 +19°C° 0.1 mm 3 m/s 747 mmHg 94%
22:00 +19°C° 0.1 mm 3 m/s 747 mmHg 95%
23:00 +19°C° 0.1 mm 4 m/s 747 mmHg 95%

Poimâine, 6 Iulie, Luni

Timp Temperatura Precipitaţii Vânt Presiune Umiditate
00:00 +19°C° 0 mm 4 m/s 747 mmHg 95%
01:00 +19°C° 0 mm 4 m/s 747 mmHg 96%
02:00 +18°C° 0 mm 4 m/s 747 mmHg 96%
03:00 +19°C° 0 mm 4 m/s 746 mmHg 95%
04:00 +19°C° 0 mm 4 m/s 746 mmHg 95%
05:00 +19°C° 0 mm 4 m/s 746 mmHg 94%
06:00 +20°C° 0 mm 4 m/s 746 mmHg 92%
07:00 +20°C° 0 mm 4 m/s 746 mmHg 90%
08:00 +21°C° 0 mm 4 m/s 747 mmHg 87%
09:00 +21°C° 0.2 mm 4 m/s 746 mmHg 85%
10:00 +22°C° 0.2 mm 4 m/s 746 mmHg 83%
11:00 +22°C° 0.2 mm 4 m/s 746 mmHg 80%
12:00 +23°C° 0.2 mm 4 m/s 746 mmHg 76%
13:00 +25°C° 0.2 mm 4 m/s 746 mmHg 72%
14:00 +26°C° 0.2 mm 4 m/s 746 mmHg 68%
15:00 +25°C° 0 mm 4 m/s 746 mmHg 68%
16:00 +25°C° 0 mm 3 m/s 746 mmHg 68%
17:00 +25°C° 0 mm 3 m/s 746 mmHg 68%
18:00 +24°C° 0 mm 2 m/s 746 mmHg 73%
19:00 +23°C° 0 mm 2 m/s 746 mmHg 78%
20:00 +22°C° 0 mm 1 m/s 746 mmHg 83%
21:00 +21°C° 0 mm 1 m/s 746 mmHg 85%
22:00 +20°C° 0 mm 1 m/s 746 mmHg 86%
23:00 +19°C° 0 mm 1 m/s 746 mmHg 88%

7 Iulie, Marţi

Timp Temperatura Precipitaţii Vânt Presiune Umiditate
00:00 +18°C° 0 mm 1 m/s 747 mmHg 88%
01:00 +18°C° 0 mm 1 m/s 747 mmHg 89%
02:00 +18°C° 0 mm 1 m/s 747 mmHg 90%
03:00 +18°C° 0 mm 1 m/s 747 mmHg 90%
04:00 +18°C° 0 mm 1 m/s 747 mmHg 90%
05:00 +18°C° 0 mm 1 m/s 747 mmHg 90%
06:00 +18°C° 0.1 mm 1 m/s 747 mmHg 85%
07:00 +19°C° 0.1 mm 1 m/s 747 mmHg 80%
08:00 +19°C° 0.1 mm 1 m/s 748 mmHg 74%
09:00 +21°C° 0 mm 1 m/s 748 mmHg 66%
10:00 +21°C° 0 mm 2 m/s 748 mmHg 57%
11:00 +24°C° 0 mm 2 m/s 748 mmHg 49%
12:00 +23°C° 0 mm 2 m/s 748 mmHg 50%
13:00 +23°C° 0 mm 1 m/s 748 mmHg 52%
14:00 +23°C° 0 mm 1 m/s 748 mmHg 54%
15:00 +22°C° 0 mm 1 m/s 748 mmHg 56%
16:00 +22°C° 0 mm 1 m/s 748 mmHg 59%
17:00 +21°C° 0 mm 1 m/s 748 mmHg 62%
18:00 +20°C° 0 mm 1 m/s 748 mmHg 65%
19:00 +19°C° 0 mm 1 m/s 748 mmHg 68%
20:00 +18°C° 0 mm 1 m/s 748 mmHg 71%
21:00 +18°C° 0 mm 1 m/s 748 mmHg 71%
22:00 +18°C° 0 mm 1 m/s 748 mmHg 72%
23:00 +16°C° 0 mm 1 m/s 748 mmHg 72%

8 Iulie, Miercuri

Timp Temperatura Precipitaţii Vânt Presiune Umiditate
00:00 +16°C° 0.6 mm 1 m/s 748 mmHg 80%
01:00 +15°C° 0.6 mm 2 m/s 748 mmHg 88%
02:00 +14°C° 0.6 mm 2 m/s 747 mmHg 95%
03:00 +14°C° 1.7 mm 2 m/s 747 mmHg 96%
04:00 +14°C° 1.7 mm 2 m/s 747 mmHg 97%
05:00 +14°C° 1.7 mm 2 m/s 747 mmHg 98%
06:00 +14°C° 1.9 mm 2 m/s 747 mmHg 98%
07:00 +14°C° 1.9 mm 2 m/s 746 mmHg 98%
08:00 +13°C° 1.9 mm 2 m/s 746 mmHg 98%
09:00 +13°C° 2 mm 3 m/s 746 mmHg 97%
10:00 +13°C° 2 mm 3 m/s 746 mmHg 97%
11:00 +13°C° 2 mm 3 m/s 746 mmHg 97%
12:00 +14°C° 0.9 mm 2 m/s 746 mmHg 97%
13:00 +14°C° 0.9 mm 2 m/s 746 mmHg 96%
14:00 +14°C° 0.9 mm 1 m/s 746 mmHg 96%
15:00 +15°C° 0.2 mm 1 m/s 747 mmHg 93%
16:00 +15°C° 0.2 mm 1 m/s 747 mmHg 91%
17:00 +16°C° 0.2 mm 1 m/s 747 mmHg 89%
18:00 +15°C° 0.1 mm 1 m/s 747 mmHg 90%
19:00 +15°C° 0.1 mm 1 m/s 747 mmHg 92%
20:00 +15°C° 0.1 mm 1 m/s 747 mmHg 93%
21:00 +14°C° 0.2 mm 1 m/s 747 mmHg 94%
22:00 +13°C° 0.2 mm 1 m/s 747 mmHg 95%
23:00 +13°C° 0.2 mm 1 m/s 747 mmHg 95%

9 Iulie, Joi

Timp Temperatura Precipitaţii Vânt Presiune Umiditate
00:00 +12°C° 0.2 mm 2 m/s 747 mmHg 96%
01:00 +12°C° 0.2 mm 2 m/s 747 mmHg 97%
02:00 +12°C° 0.2 mm 2 m/s 747 mmHg 97%
03:00 +11°C° 0.6 mm 3 m/s 747 mmHg 97%
04:00 +11°C° 0.6 mm 3 m/s 747 mmHg 97%
05:00 +11°C° 0.6 mm 3 m/s 747 mmHg 97%
06:00 +12°C° 0.1 mm 3 m/s 747 mmHg 94%
07:00 +12°C° 0.1 mm 3 m/s 748 mmHg 91%
08:00 +13°C° 0.1 mm 3 m/s 748 mmHg 87%
09:00 +16°C° 0 mm 3 m/s 748 mmHg 76%
10:00 +18°C° 0 mm 4 m/s 748 mmHg 64%
11:00 +20°C° 0 mm 4 m/s 749 mmHg 52%
12:00 +20°C° 0 mm 4 m/s 749 mmHg 51%
13:00 +21°C° 0 mm 4 m/s 749 mmHg 49%
14:00 +22°C° 0 mm 4 m/s 749 mmHg 47%
15:00 +21°C° 0 mm 4 m/s 749 mmHg 50%
16:00 +21°C° 0 mm 3 m/s 749 mmHg 52%
17:00 +21°C° 0 mm 3 m/s 749 mmHg 55%
18:00 +20°C° 0 mm 3 m/s 749 mmHg 62%
19:00 +18°C° 0 mm 2 m/s 750 mmHg 70%
20:00 +17°C° 0 mm 2 m/s 750 mmHg 77%
21:00 +16°C° 0 mm 2 m/s 750 mmHg 82%
22:00 +15°C° 0 mm 2 m/s 750 mmHg 88%
23:00 +14°C° 0 mm 2 m/s 750 mmHg 93%
Arată mai mult